| time (UTC) | temp F | wind direction | speed knots | gust knots | rain 1hr in | rain 24hr in | rain mn in | humidity % | barometer mb |
| 20260502214429 | 57 | 182 | 1.7 | 4.3 | 0.00 | 0.00 | 0.00 | 61 | 1013.7 |
| 20260502213930 | 56 | 182 | 0.9 | 4.3 | 0.00 | 0.00 | 0.00 | 66 | 1013.7 |
| 20260502213429 | 56 | 184 | 0.0 | 4.3 | 0.00 | 0.00 | 0.00 | 67 | 1013.7 |
| 20260502212930 | 56 | 186 | 0.0 | 1.7 | 0.00 | 0.00 | 0.00 | 67 | 1013.8 |
| 20260502212429 | 56 | 186 | 0.0 | 0.0 | 0.00 | 0.00 | 0.00 | 67 | 1013.7 |
| 20260502211929 | 56 | 186 | 0.0 | 0.0 | 0.00 | 0.00 | 0.00 | 67 | 1013.8 |
| 20260502211721 | 56 | 186 | 0.0 | 0.0 | 0.00 | 0.00 | 0.00 | 67 | 1013.7 |
| 20260502210931 | 57 | 186 | 0.0 | 0.0 | 0.00 | 0.00 | 0.00 | 65 | 1013.7 |
| 20260502210430 | 57 | 186 | 0.0 | 0.0 | 0.00 | 0.00 | 0.00 | 65 | 1013.7 |
| 20260502210226 | 57 | 186 | 0.0 | 0.0 | 0.00 | 0.00 | 0.00 | 66 | 1013.7 |
| 20260502205430 | 58 | 186 | 0.0 | 0.0 | 0.00 | 0.00 | 0.00 | 65 | 1013.7 |
| 20260502204930 | 58 | 186 | 0.0 | 0.0 | 0.00 | 0.00 | 0.00 | 64 | 1013.7 |
| 20260502204429 | 58 | 186 | 0.0 | 0.0 | 0.00 | 0.00 | 0.00 | 63 | 1013.8 |
| 20260502203929 | 59 | 186 | 0.0 | 0.0 | 0.00 | 0.00 | 0.00 | 61 | 1013.8 |
| 20260502203428 | 59 | 186 | 0.0 | 0.0 | 0.00 | 0.00 | 0.00 | 63 | 1013.8 |
| 20260502202931 | 59 | 186 | 0.0 | 0.0 | 0.00 | 0.00 | 0.00 | 61 | 1013.8 |
| 20260502202431 | 60 | 186 | 0.0 | 0.0 | 0.00 | 0.00 | 0.00 | 61 | 1013.8 |
| 20260502201927 | 60 | 186 | 0.0 | 0.0 | 0.00 | 0.00 | 0.00 | 61 | 1014.0 |
| 20260502201414 | 60 | 186 | 0.0 | 0.0 | 0.00 | 0.00 | 0.00 | 60 | 1014.0 |
| 20260502200904 | 61 | 186 | 0.0 | 0.0 | 0.00 | 0.00 | 0.00 | 59 | 1014.1 |
| 20260502200406 | 61 | 186 | 0.0 | 0.0 | 0.00 | 0.00 | 0.00 | 57 | 1014.1 |
| 20260502195903 | 62 | 186 | 0.0 | 0.0 | 0.00 | 0.00 | 0.00 | 55 | 1014.0 |
| 20260502195402 | 62 | 186 | 0.0 | 0.0 | 0.00 | 0.00 | 0.00 | 54 | 1014.0 |
| 20260502194906 | 63 | 186 | 0.0 | 0.0 | 0.00 | 0.00 | 0.00 | 52 | 1014.0 |
| 20260502194401 | 64 | 186 | 0.0 | 3.5 | 0.00 | 0.00 | 0.00 | 48 | 1013.8 |
| 20260502193901 | 65 | 186 | 0.0 | 3.5 | 0.00 | 0.00 | 0.00 | 45 | 1013.7 |
| 20260502193656 | 66 | 186 | 0.9 | 4.3 | 0.00 | 0.00 | 0.00 | 43 | 1013.7 |
| 20260502192901 | 67 | 186 | 1.7 | 4.3 | 0.00 | 0.00 | 0.00 | 42 | 1013.8 |
| 20260502192401 | 67 | 186 | 1.7 | 4.3 | 0.00 | 0.00 | 0.00 | 40 | 1013.7 |
| 20260502191901 | 68 | 186 | 2.6 | 4.3 | 0.00 | 0.00 | 0.00 | 39 | 1013.7 |
| 20260502191511 | 69 | 186 | 2.6 | 6.1 | 0.00 | 0.00 | 0.00 | 37 | 1013.6 |
| 20260502191443 | 69 | 186 | 2.6 | 6.1 | 0.00 | 0.00 | 0.00 | 37 | 1013.6 |
| 20260502190401 | 70 | 175 | 3.5 | 7.0 | 0.00 | 0.00 | 0.00 | 35 | 1013.6 |
| 20260502190202 | 70 | 188 | 2.6 | 7.0 | 0.00 | 0.00 | 0.00 | 35 | 1013.6 |
| 20260502185402 | 70 | 183 | 2.6 | 6.1 | 0.00 | 0.00 | 0.00 | 35 | 1013.5 |
| 20260502185158 | 71 | 183 | 2.6 | 7.0 | 0.00 | 0.00 | 0.00 | 34 | 1013.5 |
| 20260502184404 | 71 | 178 | 3.5 | 7.0 | 0.00 | 0.00 | 0.00 | 34 | 1013.5 |
| 20260502183857 | 72 | 174 | 2.6 | 7.0 | 0.00 | 0.00 | 0.00 | 33 | 1013.5 |
| 20260502183353 | 72 | 178 | 3.5 | 7.0 | 0.00 | 0.00 | 0.00 | 32 | 1013.5 |
| 20260502182852 | 73 | 182 | 3.5 | 6.1 | 0.00 | 0.00 | 0.00 | 32 | 1013.5 |
| 20260502182354 | 73 | 161 | 2.6 | 6.1 | 0.00 | 0.00 | 0.00 | 32 | 1013.5 |
| 20260502181854 | 74 | 175 | 2.6 | 6.1 | 0.00 | 0.00 | 0.00 | 30 | 1013.4 |
| 20260502181353 | 74 | 181 | 1.7 | 5.2 | 0.00 | 0.00 | 0.00 | 30 | 1013.4 |
| 20260502181151 | 75 | 196 | 1.7 | 6.1 | 0.00 | 0.00 | 0.00 | 31 | 1013.4 |
| 20260502180353 | 75 | 200 | 2.6 | 6.1 | 0.00 | 0.00 | 0.00 | 31 | 1013.5 |
| 20260502170338 | 80 | 190 | 5.2 | 8.7 | 0.00 | 0.00 | 0.00 | 32 | 1013.4 |
| 20260502164336 | 80 | 192 | 4.3 | 8.7 | 0.00 | 0.00 | 0.00 | 32 | 1013.6 |
| 20260502163837 | 79 | 208 | 4.3 | 8.7 | 0.00 | 0.00 | 0.00 | 33 | 1013.7 |
| 20260502163337 | 79 | 146 | 5.2 | 8.7 | 0.00 | 0.00 | 0.00 | 32 | 1013.7 |
| 20260502162838 | 77 | 180 | 6.1 | 10.4 | 0.00 | 0.00 | 0.00 | 32 | 1013.8 |
| 20260502162336 | 78 | 173 | 6.1 | 10.4 | 0.00 | 0.00 | 0.00 | 32 | 1013.8 |
| 20260502161837 | 79 | 190 | 6.1 | 10.4 | 0.00 | 0.00 | 0.00 | 31 | 1014.0 |
| 20260502161336 | 79 | 193 | 7.0 | 11.3 | 0.00 | 0.00 | 0.00 | 31 | 1014.1 |
| 20260502161140 | 80 | 146 | 8.7 | 16.5 | 0.00 | 0.00 | 0.00 | 31 | 1014.1 |
| 20260502160336 | 80 | 173 | 8.7 | 16.5 | 0.00 | 0.00 | 0.00 | 30 | 1014.1 |
| 20260502152321 | 80 | 207 | 7.0 | 13.0 | 0.00 | 0.00 | 0.00 | 28 | 1014.5 |
| 20260502151825 | 80 | 178 | 7.8 | 17.4 | 0.00 | 0.00 | 0.00 | 27 | 1014.6 |
| 20260502151320 | 80 | 115 | 7.8 | 17.4 | 0.00 | 0.00 | 0.00 | 25 | 1014.7 |
| 20260502151138 | 80 | 204 | 7.0 | 13.9 | 0.00 | 0.00 | 0.00 | 29 | 1014.7 |
| 20260502150322 | 78 | 205 | 7.8 | 13.9 | 0.00 | 0.00 | 0.00 | 31 | 1014.8 |
| 20260502130556 | 78 | 209 | 7.0 | 15.6 | 0.00 | 0.00 | 0.00 | 43 | 1016.4 |
| 20260502130550 | 76 | 227 | 7.0 | 15.6 | 0.00 | 0.00 | 0.00 | 44 | 1016.5 |
| 20260502130443 | 78 | 283 | 5.2 | 10.4 | 0.00 | 0.00 | 0.00 | 44 | 1016.3 |
| 20260502123801 | 77 | 194 | 7.0 | 11.3 | 0.00 | 0.00 | 0.00 | 44 | 1016.8 |
| 20260502123303 | 77 | 157 | 5.2 | 11.3 | 0.00 | 0.00 | 0.00 | 43 | 1016.9 |
| 20260502122800 | 78 | 161 | 6.1 | 13.9 | 0.00 | 0.00 | 0.00 | 47 | 1016.9 |
| 20260502122305 | 76 | 171 | 6.1 | 13.9 | 0.00 | 0.00 | 0.00 | 45 | 1017.0 |
| 20260502121802 | 76 | 191 | 6.1 | 12.2 | 0.00 | 0.00 | 0.00 | 47 | 1017.0 |
| 20260502121301 | 74 | 180 | 7.0 | 12.2 | 0.00 | 0.00 | 0.00 | 48 | 1017.1 |
| 20260502120801 | 75 | 225 | 7.0 | 12.2 | 0.00 | 0.00 | 0.00 | 46 | 1017.1 |
| 20260502120308 | 76 | 269 | 7.0 | 13.9 | 0.00 | 0.00 | 0.00 | 45 | 1017.2 |
| 20260502115800 | 77 | 194 | 6.1 | 13.9 | 0.00 | 0.00 | 0.00 | 46 | 1017.3 |
| 20260502115305 | 76 | 182 | 6.1 | 11.3 | 0.00 | 0.00 | 0.00 | 47 | 1017.3 |
| 20260502114800 | 75 | 234 | 5.2 | 11.3 | 0.00 | 0.00 | 0.00 | 48 | 1017.4 |
| 20260502114301 | 75 | 225 | 6.1 | 13.0 | 0.00 | 0.00 | 0.00 | 48 | 1017.5 |
| 20260502113801 | 76 | 132 | 7.0 | 13.0 | 0.00 | 0.00 | 0.00 | 46 | 1017.5 |
| 20260502113302 | 75 | 171 | 5.2 | 12.2 | 0.00 | 0.00 | 0.00 | 47 | 1017.6 |
| 20260502112804 | 75 | 184 | 5.2 | 11.3 | 0.00 | 0.00 | 0.00 | 48 | 1017.6 |
| 20260502112301 | 76 | 179 | 6.1 | 11.3 | 0.00 | 0.00 | 0.00 | 47 | 1017.8 |
| 20260502112108 | 76 | 181 | 6.1 | 12.2 | 0.00 | 0.00 | 0.00 | 47 | 1017.8 |
| 20260502111302 | 75 | 194 | 4.3 | 12.2 | 0.00 | 0.00 | 0.00 | 47 | 1017.9 |
| 20260502110803 | 75 | 219 | 5.2 | 10.4 | 0.00 | 0.00 | 0.00 | 46 | 1018.0 |
| 20260502110616 | 75 | 163 | 6.1 | 10.4 | 0.00 | 0.00 | 0.00 | 47 | 1018.0 |
| 20260502105803 | 74 | 189 | 4.3 | 9.6 | 0.00 | 0.00 | 0.00 | 49 | 1018.0 |
| 20260502105301 | 74 | 232 | 3.5 | 10.4 | 0.00 | 0.00 | 0.00 | 47 | 1018.1 |
| 20260502104802 | 74 | 192 | 4.3 | 10.4 | 0.00 | 0.00 | 0.00 | 46 | 1018.1 |
| 20260502104302 | 74 | 221 | 4.3 | 8.7 | 0.00 | 0.00 | 0.00 | 46 | 1018.1 |
| 20260502103801 | 74 | 209 | 2.6 | 8.7 | 0.00 | 0.00 | 0.00 | 46 | 1018.2 |
| 20260502103407 | 74 | 180 | 4.3 | 9.6 | 0.00 | 0.00 | 0.00 | 48 | 1018.3 |
| 20260502103345 | 72 | 322 | 2.6 | 7.0 | 0.00 | 0.00 | 0.00 | 48 | 1018.2 |
| 20260502102306 | 74 | 194 | 4.3 | 9.6 | 0.00 | 0.00 | 0.00 | 48 | 1018.3 |
| 20260502101754 | 74 | 203 | 4.3 | 8.7 | 0.00 | 0.00 | 0.00 | 46 | 1018.4 |
| 20260502101410 | 74 | 155 | 5.2 | 11.3 | 0.00 | 0.00 | 0.00 | 48 | 1018.5 |
| 20260502101343 | 74 | 196 | 5.2 | 10.4 | 0.00 | 0.00 | 0.00 | 47 | 1018.4 |
| 20260502100252 | 73 | 109 | 4.3 | 11.3 | 0.00 | 0.00 | 0.00 | 47 | 1018.5 |
| 20260502091250 | 67 | 253 | 3.5 | 6.1 | 0.00 | 0.00 | 0.00 | 53 | 1019.0 |
| 20260502091100 | 67 | 199 | 3.5 | 7.8 | 0.00 | 0.00 | 0.00 | 53 | 1019.0 |
| 20260502090251 | 67 | 196 | 3.5 | 7.8 | 0.00 | 0.00 | 0.00 | 54 | 1019.1 |
| 20260502071513 | 56 | 98 | 0.0 | 1.7 | 0.00 | 0.00 | 0.00 | 60 | 1019.8 |
| 20260502070711 | 55 | 98 | 0.0 | 1.7 | 0.00 | 0.00 | 0.00 | 61 | 1019.9 |
| 20260502070513 | 55 | 98 | 0.9 | 3.5 | 0.00 | 0.00 | 0.00 | 62 | 1019.9 |
| 20260502065711 | 54 | 98 | 0.9 | 3.5 | 0.00 | 0.00 | 0.00 | 63 | 1019.8 |
| 20260502065209 | 53 | 98 | 0.9 | 1.7 | 0.00 | 0.00 | 0.00 | 67 | 1019.8 |
| 20260502064703 | 53 | 98 | 0.9 | 1.7 | 0.00 | 0.00 | 0.00 | 69 | 1019.8 |
| 20260502064203 | 52 | 98 | 0.9 | 1.7 | 0.00 | 0.00 | 0.00 | 69 | 1019.8 |
| 20260502063704 | 51 | 98 | 0.9 | 1.7 | 0.00 | 0.00 | 0.00 | 70 | 1019.8 |
| 20260502063204 | 51 | 98 | 0.0 | 0.9 | 0.00 | 0.00 | 0.00 | 70 | 1019.9 |
| 20260502062703 | 50 | 98 | 0.0 | 0.9 | 0.00 | 0.00 | 0.00 | 71 | 1019.9 |
| 20260502062202 | 50 | 98 | 0.0 | 0.0 | 0.00 | 0.00 | 0.00 | 72 | 1019.9 |
| 20260502061701 | 49 | 98 | 0.0 | 1.7 | 0.00 | 0.00 | 0.00 | 73 | 1020.0 |
| 20260502061211 | 48 | 98 | 0.0 | 1.7 | 0.00 | 0.00 | 0.00 | 75 | 1019.9 |
| 20260502060704 | 47 | 98 | 0.0 | 0.9 | 0.00 | 0.00 | 0.00 | 76 | 1019.9 |
| 20260502060204 | 47 | 98 | 0.0 | 0.0 | 0.00 | 0.00 | 0.00 | 77 | 1019.8 |
| 20260502055959 | 46 | 98 | 0.0 | 0.0 | 0.00 | 0.00 | 0.00 | 77 | 1019.9 |
| 20260502055202 | 45 | 98 | 0.0 | 0.0 | 0.00 | 0.00 | 0.00 | 78 | 1019.9 |
| 20260502054701 | 45 | 98 | 0.0 | 0.0 | 0.00 | 0.00 | 0.00 | 78 | 1019.9 |
| 20260502054202 | 45 | 98 | 0.0 | 0.0 | 0.00 | 0.00 | 0.00 | 78 | 1019.9 |
| 20260502053702 | 45 | 98 | 0.0 | 0.0 | 0.00 | 0.00 | 0.00 | 78 | 1019.9 |
| 20260502053202 | 44 | 98 | 0.0 | 0.0 | 0.00 | 0.00 | 0.00 | 79 | 1020.0 |
| 20260502052702 | 44 | 98 | 0.0 | 0.0 | 0.00 | 0.00 | 0.00 | 79 | 1020.0 |
| 20260502052202 | 44 | 98 | 0.0 | 0.0 | 0.00 | 0.00 | 0.00 | 79 | 1020.0 |
| 20260502051704 | 43 | 98 | 0.0 | 0.9 | 0.00 | 0.00 | 0.00 | 80 | 1019.9 |
| 20260502051203 | 43 | 98 | 0.0 | 1.7 | 0.00 | 0.00 | 0.00 | 81 | 1019.8 |
| 20260502050652 | 42 | 98 | 0.0 | 1.7 | 0.00 | 0.00 | 0.00 | 82 | 1019.9 |
| 20260502050446 | 42 | 98 | 0.0 | 0.9 | 0.00 | 0.00 | 0.00 | 82 | 1019.8 |
| 20260502045941 | 42 | 98 | 0.0 | 0.0 | 0.00 | 0.00 | 0.00 | 82 | 1019.7 |
| 20260502045132 | 42 | 98 | 0.0 | 0.0 | 0.00 | 0.00 | 0.00 | 82 | 1019.6 |
| 20260502044916 | 42 | 98 | 0.0 | 0.0 | 0.00 | 0.00 | 0.00 | 82 | 1019.7 |
| 20260502044418 | 41 | 98 | 0.0 | 0.0 | 0.00 | 0.00 | 0.00 | 82 | 1019.7 |
| 20260502043611 | 41 | 98 | 0.0 | 0.0 | 0.00 | 0.00 | 0.00 | 82 | 1019.7 |
| 20260502043104 | 41 | 98 | 0.0 | 0.0 | 0.00 | 0.00 | 0.00 | 82 | 1019.6 |
| 20260502042554 | 41 | 98 | 0.0 | 0.0 | 0.00 | 0.00 | 0.00 | 83 | 1019.6 |
| 20260502042213 | 41 | 98 | 0.0 | 0.0 | 0.00 | 0.00 | 0.00 | 82 | 1019.6 |
| 20260502042140 | 41 | 98 | 0.0 | 0.0 | 0.00 | 0.00 | 0.00 | 82 | 1019.6 |
| 20260502041312 | 41 | 98 | 0.0 | 1.7 | 0.00 | 0.00 | 0.00 | 82 | 1019.6 |
| 20260502041233 | 41 | 98 | 0.0 | 0.0 | 0.00 | 0.00 | 0.00 | 82 | 1019.6 |
| 20260502040644 | 41 | 98 | 0.0 | 0.0 | 0.00 | 0.00 | 0.00 | 83 | 1019.6 |
| 20260502035542 | 41 | 98 | 0.0 | 1.7 | 0.00 | 0.00 | 0.00 | 82 | 1019.6 |
| 20260502035042 | 41 | 98 | 0.0 | 1.7 | 0.00 | 0.00 | 0.00 | 82 | 1019.6 |
| 20260502034541 | 41 | 98 | 0.0 | 0.0 | 0.00 | 0.00 | 0.00 | 82 | 1019.7 |
| 20260502034040 | 41 | 98 | 0.0 | 0.0 | 0.00 | 0.00 | 0.00 | 82 | 1019.7 |
| 20260502033539 | 41 | 98 | 0.0 | 0.0 | 0.00 | 0.00 | 0.00 | 82 | 1019.7 |
| 20260502033038 | 41 | 98 | 0.0 | 0.9 | 0.00 | 0.00 | 0.00 | 82 | 1019.7 |
| 20260502032537 | 41 | 98 | 0.0 | 0.9 | 0.00 | 0.00 | 0.00 | 82 | 1019.8 |
| 20260502032144 | 41 | 98 | 0.0 | 0.0 | 0.00 | 0.00 | 0.00 | 81 | 1019.7 |
| 20260502032122 | 41 | 98 | 0.0 | 0.0 | 0.00 | 0.00 | 0.00 | 82 | 1019.7 |
| 20260502031032 | 42 | 98 | 0.0 | 0.0 | 0.00 | 0.00 | 0.00 | 81 | 1019.6 |
| 20260502030531 | 42 | 98 | 0.0 | 0.0 | 0.00 | 0.00 | 0.00 | 80 | 1019.6 |
| 20260502030030 | 42 | 98 | 0.0 | 0.0 | 0.00 | 0.00 | 0.00 | 81 | 1019.6 |
| 20260502025530 | 42 | 98 | 0.0 | 0.0 | 0.00 | 0.00 | 0.00 | 81 | 1019.8 |
| 20260502025320 | 42 | 98 | 0.0 | 0.0 | 0.00 | 0.00 | 0.00 | 81 | 1019.7 |
| 20260502024530 | 42 | 98 | 0.0 | 0.0 | 0.00 | 0.00 | 0.00 | 80 | 1019.6 |
| 20260502024029 | 42 | 98 | 0.0 | 0.0 | 0.00 | 0.00 | 0.00 | 79 | 1019.7 |
| 20260502023819 | 42 | 98 | 0.0 | 0.0 | 0.00 | 0.00 | 0.00 | 81 | 1019.8 |
| 20260502023030 | 42 | 98 | 0.0 | 0.0 | 0.00 | 0.00 | 0.00 | 80 | 1019.8 |
| 20260502022531 | 42 | 98 | 0.0 | 0.0 | 0.00 | 0.00 | 0.00 | 80 | 1019.7 |
| 20260502022029 | 42 | 98 | 0.0 | 0.0 | 0.00 | 0.00 | 0.00 | 80 | 1019.7 |
| 20260502021529 | 42 | 98 | 0.0 | 0.0 | 0.00 | 0.00 | 0.00 | 80 | 1019.7 |
| 20260502021321 | 42 | 98 | 0.0 | 0.0 | 0.00 | 0.00 | 0.00 | 80 | 1019.7 |
| 20260502020530 | 42 | 98 | 0.0 | 0.0 | 0.00 | 0.00 | 0.00 | 80 | 1019.7 |
| 20260502020030 | 43 | 98 | 0.0 | 0.0 | 0.00 | 0.00 | 0.00 | 80 | 1019.7 |
| 20260502015529 | 42 | 98 | 0.0 | 0.0 | 0.00 | 0.00 | 0.00 | 80 | 1019.7 |
| 20260502015121 | 43 | 98 | 0.0 | 0.0 | 0.00 | 0.00 | 0.00 | 79 | 1019.8 |
| 20260502015104 | 43 | 98 | 0.0 | 0.0 | 0.00 | 0.00 | 0.00 | 79 | 1019.7 |
| 20260502014033 | 43 | 98 | 0.0 | 0.0 | 0.00 | 0.00 | 0.00 | 79 | 1019.8 |
| 20260502013530 | 43 | 98 | 0.0 | 0.0 | 0.00 | 0.00 | 0.00 | 79 | 1019.8 |
| 20260502013312 | 43 | 98 | 0.0 | 0.0 | 0.00 | 0.00 | 0.00 | 79 | 1019.8 |
| 20260502012531 | 43 | 98 | 0.0 | 0.0 | 0.00 | 0.00 | 0.00 | 79 | 1019.8 |
| 20260502012030 | 43 | 98 | 0.0 | 0.0 | 0.00 | 0.00 | 0.00 | 79 | 1019.8 |
| 20260502011832 | 43 | 98 | 0.0 | 0.0 | 0.00 | 0.00 | 0.00 | 78 | 1019.7 |
| 20260502011023 | 44 | 98 | 0.0 | 0.0 | 0.00 | 0.00 | 0.00 | 79 | 1019.8 |
| 20260502010517 | 43 | 98 | 0.0 | 0.0 | 0.00 | 0.00 | 0.00 | 78 | 1019.9 |
| 20260502010016 | 44 | 98 | 0.0 | 0.0 | 0.00 | 0.00 | 0.00 | 78 | 1019.9 |
| 20260502005512 | 44 | 98 | 0.0 | 0.0 | 0.00 | 0.00 | 0.00 | 77 | 1019.9 |
| 20260502005013 | 44 | 98 | 0.0 | 0.0 | 0.00 | 0.00 | 0.00 | 77 | 1019.9 |
| 20260502004511 | 44 | 98 | 0.0 | 0.0 | 0.00 | 0.00 | 0.00 | 77 | 1020.0 |
| 20260502004008 | 44 | 98 | 0.0 | 0.0 | 0.00 | 0.00 | 0.00 | 77 | 1020.0 |
| 20260502003504 | 44 | 98 | 0.0 | 0.0 | 0.00 | 0.00 | 0.00 | 76 | 1020.0 |
| 20260502003006 | 45 | 98 | 0.0 | 0.0 | 0.00 | 0.00 | 0.00 | 76 | 1020.1 |
| 20260502002758 | 45 | 98 | 0.0 | 0.0 | 0.00 | 0.00 | 0.00 | 77 | 1020.1 |
| 20260502002002 | 44 | 98 | 0.0 | 0.0 | 0.00 | 0.00 | 0.00 | 77 | 1020.1 |
| 20260502001502 | 45 | 98 | 0.0 | 0.0 | 0.00 | 0.00 | 0.00 | 77 | 1020.1 |
| 20260502001001 | 45 | 98 | 0.0 | 0.0 | 0.00 | 0.00 | 0.00 | 76 | 1020.1 |
| 20260502000503 | 45 | 98 | 0.0 | 0.0 | 0.00 | 0.00 | 0.00 | 76 | 1020.1 |
| 20260502000002 | 45 | 98 | 0.0 | 0.0 | 0.00 | 0.00 | 0.00 | 76 | 1020.2 |
| 20260501235502 | 45 | 98 | 0.0 | 0.0 | 0.00 | 0.00 | 0.00 | 75 | 1020.2 |
| 20260501235002 | 45 | 98 | 0.0 | 0.0 | 0.00 | 0.00 | 0.00 | 75 | 1020.3 |
| 20260501234502 | 46 | 98 | 0.0 | 0.0 | 0.00 | 0.00 | 0.00 | 75 | 1020.3 |
| 20260501234002 | 46 | 98 | 0.0 | 0.0 | 0.00 | 0.00 | 0.00 | 75 | 1020.3 |
| 20260501233758 | 46 | 98 | 0.0 | 0.0 | 0.00 | 0.00 | 0.00 | 75 | 1020.3 |
| 20260501233001 | 46 | 98 | 0.0 | 0.0 | 0.00 | 0.00 | 0.00 | 74 | 1020.3 |
| 20260501232455 | 46 | 98 | 0.0 | 0.0 | 0.00 | 0.00 | 0.00 | 73 | 1020.3 |
| 20260501231944 | 46 | 98 | 0.0 | 0.0 | 0.00 | 0.00 | 0.00 | 73 | 1020.4 |
| 20260501231445 | 46 | 98 | 0.0 | 0.0 | 0.00 | 0.00 | 0.00 | 74 | 1020.3 |
| 20260501230932 | 47 | 98 | 0.0 | 0.0 | 0.00 | 0.00 | 0.00 | 74 | 1020.4 |
| 20260501230430 | 47 | 98 | 0.0 | 0.0 | 0.00 | 0.00 | 0.00 | 73 | 1020.4 |
| 20260501225926 | 47 | 98 | 0.0 | 0.0 | 0.00 | 0.00 | 0.00 | 72 | 1020.4 |
| 20260501225703 | 47 | 98 | 0.0 | 0.0 | 0.00 | 0.00 | 0.00 | 72 | 1020.4 |
| 20260501224913 | 47 | 98 | 0.0 | 0.0 | 0.00 | 0.00 | 0.00 | 71 | 1020.3 |
| 20260501224411 | 48 | 98 | 0.0 | 0.0 | 0.00 | 0.00 | 0.00 | 71 | 1020.4 |
| 20260501223912 | 48 | 98 | 0.0 | 0.0 | 0.00 | 0.00 | 0.00 | 71 | 1020.4 |
| 20260501223410 | 48 | 98 | 0.0 | 0.0 | 0.00 | 0.00 | 0.00 | 70 | 1020.5 |
| 20260501222912 | 49 | 98 | 0.0 | 0.0 | 0.00 | 0.00 | 0.00 | 70 | 1020.5 |
| 20260501222412 | 49 | 98 | 0.0 | 0.0 | 0.00 | 0.00 | 0.00 | 70 | 1020.4 |
| 20260501222204 | 49 | 98 | 0.0 | 0.0 | 0.00 | 0.00 | 0.00 | 71 | 1020.4 |
| 20260501221408 | 49 | 98 | 0.0 | 0.0 | 0.00 | 0.00 | 0.00 | 69 | 1020.4 |
| 20260501220905 | 49 | 98 | 0.0 | 0.0 | 0.00 | 0.00 | 0.00 | 68 | 1020.4 |
| 20260501220657 | 49 | 98 | 0.0 | 0.0 | 0.00 | 0.00 | 0.00 | 69 | 1020.4 |
| 20260501215902 | 49 | 98 | 0.0 | 0.0 | 0.00 | 0.00 | 0.00 | 69 | 1020.3 |
| 20260501215403 | 49 | 98 | 0.0 | 0.0 | 0.00 | 0.00 | 0.00 | 68 | 1020.3 |
| 20260501214903 | 50 | 98 | 0.0 | 0.0 | 0.00 | 0.00 | 0.00 | 68 | 1020.4 |